This is the latest recevied weather packets stored in our database for station/object K1AWR. If no packets are shown the sender has not sent any weather packets the latest 10 day(s).
| Time | Temp. | Humidity | Pressure | Rain* | Wind** | Luminosity | Snow |
|---|---|---|---|---|---|---|---|
| 1778157986 | 11.11° C | 53% | 1010.6 hPa | 0 mm | - | 364 W/m² | - |
| 1778157684 | 10.56° C | 52% | 1010.6 hPa | 0 mm | - | 350 W/m² | - |
| 1778157382 | 10.56° C | 54% | 1010.6 hPa | 0 mm | - | 334 W/m² | - |
| 1778157079 | 10.56° C | 57% | 1010.5 hPa | 0 mm | - | 320 W/m² | - |
| 1778156774 | 10.56° C | 56% | 1010.6 hPa | 0 mm | - | 303 W/m² | - |
| 1778156470 | 10.56° C | 56% | 1010.6 hPa | 0 mm | - | 287 W/m² | - |
| 1778156166 | 10° C | 58% | 1010.5 hPa | 0 mm | - | 292 W/m² | - |
| 1778155862 | 10° C | 61% | 1010.6 hPa | 0 mm | - | 104 W/m² | - |
| 1778155558 | 10° C | 63% | 1010.4 hPa | 0 mm | - | 48 W/m² | - |
| 1778155255 | 10° C | 67% | 1010.5 hPa | 0 mm | - | 42 W/m² | - |
| 1778154952 | 10° C | 67% | 1010.4 hPa | 0 mm | - | 40 W/m² | - |
| 1778154648 | 10° C | 71% | 1010.7 hPa | 0 mm | - | 39 W/m² | - |
| 1778154343 | 10° C | 69% | 1010.2 hPa | 0 mm | - | 155 W/m² | - |
| 1778154041 | 10° C | 70% | 1010.4 hPa | 0 mm | - | 80 W/m² | - |
| 1778153738 | 10° C | 70% | 1010.4 hPa | 0 mm | - | 106 W/m² | - |
| 1778153435 | 10° C | 73% | 1010.4 hPa | 0 mm | - | 86 W/m² | - |
| 1778153133 | 10° C | 74% | 1010.4 hPa | 0 mm | - | 49 W/m² | - |
| 1778152829 | 9.44° C | 75% | 1010.3 hPa | 0 mm | - | 49 W/m² | - |
| 1778152527 | 9.44° C | 77% | 1010.1 hPa | 0 mm | - | 46 W/m² | - |
| 1778152223 | 9.44° C | 78% | 1010 hPa | 0 mm | - | 43 W/m² | - |
| 1778151919 | 9.44° C | 78% | 1010.2 hPa | 0 mm | - | 43 W/m² | - |
| 1778151616 | 9.44° C | 77% | 1009.9 hPa | 0 mm | - | 42 W/m² | - |
| 1778151313 | 8.89° C | 82% | 1009.8 hPa | 0 mm | - | 36 W/m² | - |
| 1778151009 | 8.89° C | 83% | 1009.7 hPa | 0 mm | - | 31 W/m² | - |
| 1778150707 | 8.89° C | 86% | 1009.7 hPa | 0 mm | - | 22 W/m² | - |
* Rain latest hour (hover to see other rain measurements)
** Current wind speed in m/s (hover to see current wind gust speed)